Location: Bear Valley Community Church - Hurst
(32.8460°N, 97.1828°W)
Time: 11:07:57
(UTC+00:00)

Cosmos 1328 Rocket - Pass Details

Date: 08 December 2021
Orbit: 601 x 627 km, 82.5° (Epoch: 28 January)

Event Time Altitude Azimuth Distance (km) Brightness Sun altitude
Rises 23:48:57 0° 176° (S) 2,895 7.3 -5.9°
Reaches altitude 10° 23:51:12 10° 172° (S) 1,993 6.4 -6.3°
Maximum altitude 23:55:32 57° 94° (E) 738 3.7 -7.2°
Drops below altitude 10° 23:59:53 10° 15° (NNE) 2,004 5.8 -8.0°
Sets 00:02:09 0° 12° (NNE) 2,913 6.7 -8.4°
